Year,Month,Day,Hour,Minute,Value (Times are PST for temperature in C)
2007,08,15,00,00,14.20
2007,08,15,00,01,14.20
2007,08,15,00,02,14.20
2007,08,15,00,03,14.20
2007,08,15,00,04,14.20
2007,08,15,00,05,14.20
2007,08,15,00,06,14.20
2007,08,15,00,07,14.20
2007,08,15,00,08,14.10
2007,08,15,00,09,14.10
2007,08,15,00,10,14.10
2007,08,15,00,11,14.00
2007,08,15,00,12,14.00
2007,08,15,00,13,14.00
2007,08,15,00,14,14.00
2007,08,15,00,15,14.00
2007,08,15,00,16,13.90
2007,08,15,00,17,13.90
2007,08,15,00,18,13.90
2007,08,15,00,19,13.90
2007,08,15,00,20,13.90
2007,08,15,00,21,13.90
2007,08,15,00,22,13.90
2007,08,15,00,23,13.90
2007,08,15,00,24,13.90
2007,08,15,00,25,13.90
2007,08,15,00,26,13.90
2007,08,15,00,27,13.90
2007,08,15,00,28,13.90
2007,08,15,00,29,13.80
2007,08,15,00,30,13.80
2007,08,15,00,31,13.80
2007,08,15,00,32,13.80
2007,08,15,00,33,13.70
2007,08,15,00,34,13.70
2007,08,15,00,35,13.70
2007,08,15,00,36,13.70
2007,08,15,00,37,13.70
2007,08,15,00,38,13.70
2007,08,15,00,39,13.70
2007,08,15,00,40,13.70
2007,08,15,00,41,13.70
2007,08,15,00,42,13.70
2007,08,15,00,43,13.60
2007,08,15,00,44,13.60
2007,08,15,00,45,13.60
2007,08,15,00,46,13.60
2007,08,15,00,47,13.60
2007,08,15,00,48,13.60
2007,08,15,00,49,13.60
2007,08,15,00,50,13.60
2007,08,15,00,51,13.60
2007,08,15,00,52,13.70
2007,08,15,00,53,13.70
2007,08,15,00,54,13.70
2007,08,15,00,55,13.70
2007,08,15,00,56,13.70
2007,08,15,00,57,13.70
2007,08,15,00,58,13.70
2007,08,15,00,59,13.70
2007,08,15,01,00,13.70
2007,08,15,01,01,13.70
2007,08,15,01,02,13.70
2007,08,15,01,03,13.60
2007,08,15,01,04,13.60
2007,08,15,01,05,13.60
2007,08,15,01,06,13.60
2007,08,15,01,07,13.50
2007,08,15,01,08,13.50
2007,08,15,01,09,13.50
2007,08,15,01,10,13.50
2007,08,15,01,11,13.50
2007,08,15,01,12,13.50
2007,08,15,01,13,13.50
2007,08,15,01,14,13.50
2007,08,15,01,15,13.50
2007,08,15,01,16,13.40
2007,08,15,01,17,13.40
2007,08,15,01,18,13.40
2007,08,15,01,19,13.40
2007,08,15,01,20,13.40
2007,08,15,01,21,13.40
2007,08,15,01,22,13.40
2007,08,15,01,23,13.40
2007,08,15,01,24,13.40
2007,08,15,01,25,13.40
2007,08,15,01,26,13.40
2007,08,15,01,27,13.40
2007,08,15,01,28,13.40
2007,08,15,01,29,13.30
2007,08,15,01,30,13.30
2007,08,15,01,31,13.30
2007,08,15,01,32,13.30
2007,08,15,01,33,13.30
2007,08,15,01,34,13.30
2007,08,15,01,35,13.30
2007,08,15,01,36,13.30
2007,08,15,01,37,13.30
2007,08,15,01,38,13.30
2007,08,15,01,39,13.30
2007,08,15,01,40,13.30
2007,08,15,01,41,13.40
2007,08,15,01,42,13.30
2007,08,15,01,43,13.30
2007,08,15,01,44,13.30
2007,08,15,01,45,13.30
2007,08,15,01,46,13.30
2007,08,15,01,47,13.30
2007,08,15,01,48,13.30
2007,08,15,01,49,13.30
2007,08,15,01,50,13.30
2007,08,15,01,51,13.30
2007,08,15,01,52,13.30
2007,08,15,01,53,13.30
2007,08,15,01,54,13.30
2007,08,15,01,55,13.20
2007,08,15,01,56,13.20
2007,08,15,01,57,13.20
2007,08,15,01,58,13.10
2007,08,15,01,59,13.10
2007,08,15,02,00,13.10
2007,08,15,02,01,13.10
2007,08,15,02,02,13.10
2007,08,15,02,03,13.00
2007,08,15,02,04,13.00
2007,08,15,02,05,13.00
2007,08,15,02,06,13.00
2007,08,15,02,07,13.00
2007,08,15,02,08,13.00
2007,08,15,02,09,13.00
2007,08,15,02,10,13.00
2007,08,15,02,11,12.90
2007,08,15,02,12,12.90
2007,08,15,02,13,12.90
2007,08,15,02,14,12.90
2007,08,15,02,15,12.90
2007,08,15,02,16,12.90
2007,08,15,02,17,12.90
2007,08,15,02,18,12.90
2007,08,15,02,19,12.90
2007,08,15,02,20,12.90
2007,08,15,02,21,12.90
2007,08,15,02,22,12.90
2007,08,15,02,23,12.90
2007,08,15,02,24,12.90
2007,08,15,02,25,12.90
2007,08,15,02,26,12.90
2007,08,15,02,27,12.90
2007,08,15,02,28,12.90
2007,08,15,02,29,12.90
2007,08,15,02,30,12.90
2007,08,15,02,31,12.90
2007,08,15,02,32,12.90
2007,08,15,02,33,12.90
2007,08,15,02,34,12.80
2007,08,15,02,35,12.80
2007,08,15,02,36,12.80
2007,08,15,02,37,12.80
2007,08,15,02,38,12.80
2007,08,15,02,39,12.80
2007,08,15,02,40,12.80
2007,08,15,02,41,12.80
2007,08,15,02,42,12.80
2007,08,15,02,43,12.80
2007,08,15,02,44,12.80
2007,08,15,02,45,12.70
2007,08,15,02,46,12.70
2007,08,15,02,47,12.70
2007,08,15,02,48,12.70
2007,08,15,02,49,12.60
2007,08,15,02,50,12.60
2007,08,15,02,51,12.60
2007,08,15,02,52,12.60
2007,08,15,02,53,12.60
2007,08,15,02,54,12.50
2007,08,15,02,55,12.50
2007,08,15,02,56,12.50
2007,08,15,02,57,12.50
2007,08,15,02,58,12.50
2007,08,15,02,59,12.50
2007,08,15,03,00,12.50
2007,08,15,03,01,12.50
2007,08,15,03,02,12.50
2007,08,15,03,03,12.50
2007,08,15,03,04,12.50
2007,08,15,03,05,12.50
2007,08,15,03,06,12.50
2007,08,15,03,07,12.50
2007,08,15,03,08,12.50
2007,08,15,03,09,12.50
2007,08,15,03,10,12.50
2007,08,15,03,11,12.50
2007,08,15,03,12,12.50
2007,08,15,03,13,12.50
2007,08,15,03,14,12.50
2007,08,15,03,15,12.60
2007,08,15,03,16,12.60
2007,08,15,03,17,12.60
2007,08,15,03,18,12.60
2007,08,15,03,19,12.60
2007,08,15,03,20,12.50
2007,08,15,03,21,12.50
2007,08,15,03,22,12.50
2007,08,15,03,23,12.50
2007,08,15,03,24,12.50
2007,08,15,03,25,12.50
2007,08,15,03,26,12.50
2007,08,15,03,27,12.50
2007,08,15,03,28,12.40
2007,08,15,03,29,12.40
2007,08,15,03,30,12.40
2007,08,15,03,31,12.40
2007,08,15,03,32,12.40
2007,08,15,03,33,12.40
2007,08,15,03,34,12.40
2007,08,15,03,35,12.40
2007,08,15,03,36,12.40
2007,08,15,03,37,12.40
2007,08,15,03,38,12.40
2007,08,15,03,39,12.40
2007,08,15,03,40,12.40
2007,08,15,03,41,12.40
2007,08,15,03,42,12.40
2007,08,15,03,43,12.40
2007,08,15,03,44,12.40
2007,08,15,03,45,12.40
2007,08,15,03,46,12.40
2007,08,15,03,47,12.40
2007,08,15,03,48,12.40
2007,08,15,03,49,12.40
2007,08,15,03,50,12.40
2007,08,15,03,51,12.40
2007,08,15,03,52,12.40
2007,08,15,03,53,12.40
2007,08,15,03,54,12.40
2007,08,15,03,55,12.40
2007,08,15,03,56,12.40
2007,08,15,03,57,12.40
2007,08,15,03,58,12.40
2007,08,15,03,59,12.40
2007,08,15,04,00,12.40
2007,08,15,04,01,12.30
2007,08,15,04,02,12.30
2007,08,15,04,03,12.30
2007,08,15,04,04,12.30
2007,08,15,04,05,12.30
2007,08,15,04,06,12.30
2007,08,15,04,07,12.30
2007,08,15,04,08,12.30
2007,08,15,04,09,12.30
2007,08,15,04,10,12.30
2007,08,15,04,11,12.30
2007,08,15,04,12,12.30
2007,08,15,04,13,12.30
2007,08,15,04,14,12.30
2007,08,15,04,15,12.30
2007,08,15,04,16,12.30
2007,08,15,04,17,12.30
2007,08,15,04,18,12.30
2007,08,15,04,19,12.30
2007,08,15,04,20,12.20
2007,08,15,04,21,12.20
2007,08,15,04,22,12.20
2007,08,15,04,23,12.20
2007,08,15,04,24,12.20
2007,08,15,04,25,12.20
2007,08,15,04,26,12.20
2007,08,15,04,27,12.10
2007,08,15,04,28,12.10
2007,08,15,04,29,12.10
2007,08,15,04,30,12.20
2007,08,15,04,31,12.20
2007,08,15,04,32,12.20
2007,08,15,04,33,12.20
2007,08,15,04,34,12.10
2007,08,15,04,35,12.10
2007,08,15,04,36,12.10
2007,08,15,04,37,12.10
2007,08,15,04,38,12.10
2007,08,15,04,39,12.10
2007,08,15,04,40,12.10
2007,08,15,04,41,12.10
2007,08,15,04,42,12.10
2007,08,15,04,43,12.10
2007,08,15,04,44,12.10
2007,08,15,04,45,12.00
2007,08,15,04,46,12.00
2007,08,15,04,47,12.00
2007,08,15,04,48,12.00
2007,08,15,04,49,12.00
2007,08,15,04,50,12.00
2007,08,15,04,51,11.90
2007,08,15,04,52,11.90
2007,08,15,04,53,11.90
2007,08,15,04,54,11.90
2007,08,15,04,55,11.80
2007,08,15,04,56,11.80
2007,08,15,04,57,11.80
2007,08,15,04,58,11.80
2007,08,15,04,59,11.80
2007,08,15,05,00,11.80
2007,08,15,05,01,11.80
2007,08,15,05,02,11.80
2007,08,15,05,03,11.80
2007,08,15,05,04,11.80
2007,08,15,05,05,11.80
2007,08,15,05,06,11.80
2007,08,15,05,07,11.80
2007,08,15,05,08,11.80
2007,08,15,05,09,11.80
2007,08,15,05,10,11.80
2007,08,15,05,11,11.80
2007,08,15,05,12,11.80
2007,08,15,05,13,11.80
2007,08,15,05,14,11.80
2007,08,15,05,15,11.80
2007,08,15,05,16,11.80
2007,08,15,05,17,11.80
2007,08,15,05,18,11.80
2007,08,15,05,19,11.80
2007,08,15,05,20,11.80
2007,08,15,05,21,11.80
2007,08,15,05,22,11.80
2007,08,15,05,23,11.80
2007,08,15,05,24,11.80
2007,08,15,05,25,11.80
2007,08,15,05,26,11.80
2007,08,15,05,27,11.80
2007,08,15,05,28,11.80
2007,08,15,05,29,11.80
2007,08,15,05,30,11.80
2007,08,15,05,31,11.80
2007,08,15,05,32,11.80
2007,08,15,05,33,11.80
2007,08,15,05,34,11.80
2007,08,15,05,35,11.80
2007,08,15,05,36,11.80
2007,08,15,05,37,11.80
2007,08,15,05,38,11.80
2007,08,15,05,39,11.70
2007,08,15,05,40,11.70
2007,08,15,05,41,11.70
2007,08,15,05,42,11.70
2007,08,15,05,43,11.70
2007,08,15,05,44,11.70
2007,08,15,05,45,11.70
2007,08,15,05,46,11.70
2007,08,15,05,47,11.70
2007,08,15,05,48,11.70
2007,08,15,05,49,11.70
2007,08,15,05,50,11.70
2007,08,15,05,51,11.60
2007,08,15,05,52,11.60
2007,08,15,05,53,11.60
2007,08,15,05,54,11.60
2007,08,15,05,55,11.60
2007,08,15,05,56,11.60
2007,08,15,05,57,11.60
2007,08,15,05,58,11.60
2007,08,15,05,59,11.60
2007,08,15,06,00,11.60
2007,08,15,06,01,11.60
2007,08,15,06,02,11.60
2007,08,15,06,03,11.60
2007,08,15,06,04,11.60
2007,08,15,06,05,11.60
2007,08,15,06,06,11.60
2007,08,15,06,07,11.60
2007,08,15,06,08,11.60
2007,08,15,06,09,11.60
2007,08,15,06,10,11.60
2007,08,15,06,11,11.60
2007,08,15,06,12,11.60
2007,08,15,06,13,11.60
2007,08,15,06,14,11.60
2007,08,15,06,15,11.60
2007,08,15,06,16,11.60
2007,08,15,06,17,11.60
2007,08,15,06,18,11.60
2007,08,15,06,19,11.60
2007,08,15,06,20,11.60
2007,08,15,06,21,11.60
2007,08,15,06,22,11.60
2007,08,15,06,23,11.60
2007,08,15,06,24,11.60
2007,08,15,06,25,11.60
2007,08,15,06,26,11.60
2007,08,15,06,27,11.60
2007,08,15,06,28,11.60
2007,08,15,06,29,11.60
2007,08,15,06,30,11.60
2007,08,15,06,31,11.60
2007,08,15,06,32,11.60
2007,08,15,06,33,11.60
2007,08,15,06,34,11.60
2007,08,15,06,35,11.60
2007,08,15,06,36,11.60
2007,08,15,06,37,11.60
2007,08,15,06,38,11.60
2007,08,15,06,39,11.60
2007,08,15,06,40,11.60
2007,08,15,06,41,11.60
2007,08,15,06,42,11.60
2007,08,15,06,43,11.60
2007,08,15,06,44,11.60
2007,08,15,06,45,11.60
2007,08,15,06,46,11.60
2007,08,15,06,47,11.60
2007,08,15,06,48,11.60
2007,08,15,06,49,11.60
2007,08,15,06,50,11.60
2007,08,15,06,51,11.60
2007,08,15,06,52,11.60
2007,08,15,06,53,11.60
2007,08,15,06,54,11.60
2007,08,15,06,55,11.60
2007,08,15,06,56,11.60
2007,08,15,06,57,11.60
2007,08,15,06,58,11.60
2007,08,15,06,59,11.60
2007,08,15,07,00,11.60
2007,08,15,07,01,11.70
2007,08,15,07,02,11.70
2007,08,15,07,03,11.70
2007,08,15,07,04,11.70
2007,08,15,07,05,11.80
2007,08,15,07,06,11.80
2007,08,15,07,07,11.80
2007,08,15,07,08,11.80
2007,08,15,07,09,11.80
2007,08,15,07,10,11.90
2007,08,15,07,11,11.90
2007,08,15,07,12,12.00
2007,08,15,07,13,12.00
2007,08,15,07,14,12.10
2007,08,15,07,15,12.10
2007,08,15,07,16,12.20
2007,08,15,07,17,12.20
2007,08,15,07,18,12.30
2007,08,15,07,19,12.30
2007,08,15,07,20,12.30
2007,08,15,07,21,12.40
2007,08,15,07,22,12.50
2007,08,15,07,23,12.50
2007,08,15,07,24,12.60
2007,08,15,07,25,12.70
2007,08,15,07,26,12.80
2007,08,15,07,27,12.80
2007,08,15,07,28,12.90
2007,08,15,07,29,13.00
2007,08,15,07,30,13.10
2007,08,15,07,31,13.20
2007,08,15,07,32,13.30
2007,08,15,07,33,13.30
2007,08,15,07,34,13.40
2007,08,15,07,35,13.50
2007,08,15,07,36,13.60
2007,08,15,07,37,13.70
2007,08,15,07,38,13.70
2007,08,15,07,39,13.80
2007,08,15,07,40,13.90
2007,08,15,07,41,14.00
2007,08,15,07,42,14.00
2007,08,15,07,43,14.10
2007,08,15,07,44,14.20
2007,08,15,07,45,14.30
2007,08,15,07,46,14.40
2007,08,15,07,47,14.50
2007,08,15,07,48,14.60
2007,08,15,07,49,14.60
2007,08,15,07,50,14.70
2007,08,15,07,51,14.80
2007,08,15,07,52,15.00
2007,08,15,07,53,15.10
2007,08,15,07,54,15.20
2007,08,15,07,55,15.40
2007,08,15,07,56,15.50
2007,08,15,07,57,15.60
2007,08,15,07,58,15.70
2007,08,15,07,59,15.80
2007,08,15,08,00,15.90
2007,08,15,08,01,16.10
2007,08,15,08,02,16.20
2007,08,15,08,03,16.30
2007,08,15,08,04,16.40
2007,08,15,08,05,16.50
2007,08,15,08,06,16.60
2007,08,15,08,07,16.70
2007,08,15,08,08,16.70
2007,08,15,08,09,16.80
2007,08,15,08,10,16.80
2007,08,15,08,11,16.90
2007,08,15,08,12,16.90
2007,08,15,08,13,17.00
2007,08,15,08,14,17.00
2007,08,15,08,15,17.10
2007,08,15,08,16,17.10
2007,08,15,08,17,17.20
2007,08,15,08,18,17.30
2007,08,15,08,19,17.30
2007,08,15,08,20,17.30
2007,08,15,08,21,17.30
2007,08,15,08,22,17.40
2007,08,15,08,23,17.50
2007,08,15,08,24,17.50
2007,08,15,08,25,17.50
2007,08,15,08,26,17.60
2007,08,15,08,27,17.70
2007,08,15,08,28,17.70
2007,08,15,08,29,17.70
2007,08,15,08,30,17.80
2007,08,15,08,31,17.80
2007,08,15,08,32,17.80
2007,08,15,08,33,17.80
2007,08,15,08,34,17.90
2007,08,15,08,35,17.90
2007,08,15,08,36,17.90
2007,08,15,08,37,17.90
2007,08,15,08,38,17.90
2007,08,15,08,39,17.90
2007,08,15,08,40,18.00
2007,08,15,08,41,18.10
2007,08,15,08,42,18.20
2007,08,15,08,43,18.20
2007,08,15,08,44,18.20
2007,08,15,08,45,18.30
2007,08,15,08,46,18.30
2007,08,15,08,47,18.40
2007,08,15,08,48,18.40
2007,08,15,08,49,18.40
2007,08,15,08,50,18.50
2007,08,15,08,51,18.50
2007,08,15,08,52,18.50
2007,08,15,08,53,18.60
2007,08,15,08,54,18.70
2007,08,15,08,55,18.70
2007,08,15,08,56,18.80
2007,08,15,08,57,18.80
2007,08,15,08,58,18.90
2007,08,15,08,59,18.90
2007,08,15,09,00,18.90
2007,08,15,09,01,19.00
2007,08,15,09,02,19.10
2007,08,15,09,03,19.10
2007,08,15,09,04,19.10
2007,08,15,09,05,19.20
2007,08,15,09,06,19.20
2007,08,15,09,07,19.30
2007,08,15,09,08,19.30
2007,08,15,09,09,19.40
2007,08,15,09,10,19.40
2007,08,15,09,11,19.50
2007,08,15,09,12,19.60
2007,08,15,09,13,19.60
2007,08,15,09,14,19.70
2007,08,15,09,15,19.70
2007,08,15,09,16,19.80
2007,08,15,09,17,19.90
2007,08,15,09,18,19.90
2007,08,15,09,19,19.90
2007,08,15,09,20,20.00
2007,08,15,09,21,20.10
2007,08,15,09,22,20.20
2007,08,15,09,23,20.20
2007,08,15,09,24,20.30
2007,08,15,09,25,20.30
2007,08,15,09,26,20.40
2007,08,15,09,27,20.50
2007,08,15,09,28,20.50
2007,08,15,09,29,20.60
2007,08,15,09,30,20.70
2007,08,15,09,31,20.70
2007,08,15,09,32,20.70
2007,08,15,09,33,20.70
2007,08,15,09,34,20.80
2007,08,15,09,35,20.80
2007,08,15,09,36,20.80
2007,08,15,09,37,20.90
2007,08,15,09,38,21.00
2007,08,15,09,39,21.00
2007,08,15,09,40,21.00
2007,08,15,09,41,21.00
2007,08,15,09,42,21.00
2007,08,15,09,43,21.00
2007,08,15,09,44,21.00
2007,08,15,09,45,21.10
2007,08,15,09,46,21.10
2007,08,15,09,47,21.10
2007,08,15,09,48,21.10
2007,08,15,09,49,21.10
2007,08,15,09,50,21.20
2007,08,15,09,51,21.20
2007,08,15,09,52,21.30
2007,08,15,09,53,21.30
2007,08,15,09,54,21.30
2007,08,15,09,55,21.40
2007,08,15,09,56,21.60
2007,08,15,09,57,21.60
2007,08,15,09,58,21.70
2007,08,15,09,59,21.80
2007,08,15,10,00,21.90
2007,08,15,10,01,22.00
2007,08,15,10,02,22.00
2007,08,15,10,03,22.20
2007,08,15,10,04,22.20
2007,08,15,10,05,22.30
2007,08,15,10,06,22.40
2007,08,15,10,07,22.50
2007,08,15,10,08,22.50
2007,08,15,10,09,22.50
2007,08,15,10,10,22.60
2007,08,15,10,11,22.60
2007,08,15,10,12,22.60
2007,08,15,10,13,22.70
2007,08,15,10,14,22.70
2007,08,15,10,15,22.80
2007,08,15,10,16,22.80
2007,08,15,10,17,22.80
2007,08,15,10,18,22.80
2007,08,15,10,19,22.80
2007,08,15,10,20,22.80
2007,08,15,10,21,22.80
2007,08,15,10,22,22.80
2007,08,15,10,23,22.80
2007,08,15,10,24,22.90
2007,08,15,10,25,22.90
2007,08,15,10,26,22.90
2007,08,15,10,27,22.90
2007,08,15,10,28,22.90
2007,08,15,10,29,22.90
2007,08,15,10,30,22.90
2007,08,15,10,31,23.00
2007,08,15,10,32,23.10
2007,08,15,10,33,23.10
2007,08,15,10,34,23.20
2007,08,15,10,35,23.20
2007,08,15,10,36,23.20
2007,08,15,10,37,23.20
2007,08,15,10,38,23.20
2007,08,15,10,39,23.30
2007,08,15,10,40,23.30
2007,08,15,10,41,23.30
2007,08,15,10,42,23.40
2007,08,15,10,43,23.40
2007,08,15,10,44,23.40
2007,08,15,10,45,23.40
2007,08,15,10,46,23.40
2007,08,15,10,47,23.40
2007,08,15,10,48,23.60
2007,08,15,10,49,23.60
2007,08,15,10,50,23.60
2007,08,15,10,51,23.70
2007,08,15,10,52,23.70
2007,08,15,10,53,23.70
2007,08,15,10,54,23.80
2007,08,15,10,55,23.80
2007,08,15,10,56,23.80
2007,08,15,10,57,23.80
2007,08,15,10,58,23.90
2007,08,15,10,59,23.90
2007,08,15,11,00,23.90
2007,08,15,11,01,23.90
2007,08,15,11,02,24.00
2007,08,15,11,03,24.10
2007,08,15,11,04,24.10
2007,08,15,11,05,24.10
2007,08,15,11,06,24.10
2007,08,15,11,07,24.10
2007,08,15,11,08,24.10
2007,08,15,11,09,24.20
2007,08,15,11,10,24.20
2007,08,15,11,11,24.20
2007,08,15,11,12,24.30
2007,08,15,11,13,24.30
2007,08,15,11,14,24.30
2007,08,15,11,15,24.40
2007,08,15,11,16,24.40
2007,08,15,11,17,24.50
2007,08,15,11,18,24.50
2007,08,15,11,19,24.60
2007,08,15,11,20,24.60
2007,08,15,11,21,24.70
2007,08,15,11,22,24.70
2007,08,15,11,23,24.70
2007,08,15,11,24,24.70
2007,08,15,11,25,24.70
2007,08,15,11,26,24.70
2007,08,15,11,27,24.80
2007,08,15,11,28,24.80
2007,08,15,11,29,24.80
2007,08,15,11,30,24.80
2007,08,15,11,31,24.90
2007,08,15,11,32,24.90
2007,08,15,11,33,25.00
2007,08,15,11,34,25.20
2007,08,15,11,35,25.40
2007,08,15,11,36,25.60
2007,08,15,11,37,25.70
2007,08,15,11,38,25.80
2007,08,15,11,39,25.80
2007,08,15,11,40,25.70
2007,08,15,11,41,25.60
2007,08,15,11,42,25.60
2007,08,15,11,43,25.50
2007,08,15,11,44,25.40
2007,08,15,11,45,25.30
2007,08,15,11,46,25.20
2007,08,15,11,47,25.10
2007,08,15,11,48,25.10
2007,08,15,11,49,25.00
2007,08,15,11,50,25.00
2007,08,15,11,51,25.00
2007,08,15,11,52,25.00
2007,08,15,11,53,25.10
2007,08,15,11,54,25.20
2007,08,15,11,55,25.30
2007,08,15,11,56,25.30
2007,08,15,11,57,25.40
2007,08,15,11,58,25.40
2007,08,15,11,59,25.30
2007,08,15,12,00,25.30
2007,08,15,12,01,25.20
2007,08,15,12,02,25.10
2007,08,15,12,03,25.00
2007,08,15,12,04,24.90
2007,08,15,12,05,24.90
2007,08,15,12,06,24.90
2007,08,15,12,07,24.90
2007,08,15,12,08,25.00
2007,08,15,12,09,25.00
2007,08,15,12,10,25.10
2007,08,15,12,11,25.20
2007,08,15,12,12,25.20
2007,08,15,12,13,25.30
2007,08,15,12,14,25.40
2007,08,15,12,15,25.40
2007,08,15,12,16,25.40
2007,08,15,12,17,25.50
2007,08,15,12,18,25.60
2007,08,15,12,19,25.60
2007,08,15,12,20,25.60
2007,08,15,12,21,25.60
2007,08,15,12,22,25.60
2007,08,15,12,23,25.60
2007,08,15,12,24,25.70
2007,08,15,12,25,25.80
2007,08,15,12,26,25.90
2007,08,15,12,27,25.90
2007,08,15,12,28,25.90
2007,08,15,12,29,25.80
2007,08,15,12,30,25.80
2007,08,15,12,31,25.80
2007,08,15,12,32,25.80
2007,08,15,12,33,25.70
2007,08,15,12,34,25.70
2007,08,15,12,35,25.60
2007,08,15,12,36,25.60
2007,08,15,12,37,25.70
2007,08,15,12,38,25.70
2007,08,15,12,39,25.60
2007,08,15,12,40,25.60
2007,08,15,12,41,25.70
2007,08,15,12,42,25.80
2007,08,15,12,43,25.80
2007,08,15,12,44,25.80
2007,08,15,12,45,25.80
2007,08,15,12,46,25.80
2007,08,15,12,47,25.80
2007,08,15,12,48,25.80
2007,08,15,12,49,25.80
2007,08,15,12,50,25.80
2007,08,15,12,51,25.90
2007,08,15,12,52,25.90
2007,08,15,12,53,25.90
2007,08,15,12,54,26.00
2007,08,15,12,55,26.00
2007,08,15,12,56,26.10
2007,08,15,12,57,26.20
2007,08,15,12,58,26.30
2007,08,15,12,59,26.30
2007,08,15,13,00,26.40
2007,08,15,13,01,26.40
2007,08,15,13,02,26.40
2007,08,15,13,03,26.40
2007,08,15,13,04,26.30
2007,08,15,13,05,26.40
2007,08,15,13,06,26.50
2007,08,15,13,07,26.60
2007,08,15,13,08,26.60
2007,08,15,13,09,26.60
2007,08,15,13,10,26.60
2007,08,15,13,11,26.70
2007,08,15,13,12,26.70
2007,08,15,13,13,26.70
2007,08,15,13,14,26.80
2007,08,15,13,15,26.90
2007,08,15,13,16,26.90
2007,08,15,13,17,26.90
2007,08,15,13,18,27.10
2007,08,15,13,19,27.00
2007,08,15,13,20,26.90
2007,08,15,13,21,26.90
2007,08,15,13,22,26.90
2007,08,15,13,23,26.90
2007,08,15,13,24,26.80
2007,08,15,13,25,26.70
2007,08,15,13,26,26.70
2007,08,15,13,27,26.70
2007,08,15,13,28,26.60
2007,08,15,13,29,26.60
2007,08,15,13,30,26.50
2007,08,15,13,31,26.40
2007,08,15,13,32,26.40
2007,08,15,13,33,26.30
2007,08,15,13,34,26.20
2007,08,15,13,35,26.10
2007,08,15,13,36,26.10
2007,08,15,13,37,26.10
2007,08,15,13,38,26.20
2007,08,15,13,39,26.30
2007,08,15,13,40,26.30
2007,08,15,13,41,26.30
2007,08,15,13,42,26.30
2007,08,15,13,43,26.30
2007,08,15,13,44,26.30
2007,08,15,13,45,26.30
2007,08,15,13,46,26.40
2007,08,15,13,47,26.50
2007,08,15,13,48,26.60
2007,08,15,13,49,26.60
2007,08,15,13,50,26.60
2007,08,15,13,51,26.60
2007,08,15,13,52,26.60
2007,08,15,13,53,26.70
2007,08,15,13,54,26.80
2007,08,15,13,55,26.80
2007,08,15,13,56,26.80
2007,08,15,13,57,26.80
2007,08,15,13,58,26.90
2007,08,15,13,59,27.00
2007,08,15,14,00,27.10
2007,08,15,14,01,27.10
2007,08,15,14,02,27.00
2007,08,15,14,03,26.90
2007,08,15,14,04,26.90
2007,08,15,14,05,26.80
2007,08,15,14,06,26.80
2007,08,15,14,07,26.70
2007,08,15,14,08,26.70
2007,08,15,14,09,26.80
2007,08,15,14,10,26.80
2007,08,15,14,11,26.80
2007,08,15,14,12,26.80
2007,08,15,14,13,26.80
2007,08,15,14,14,26.80
2007,08,15,14,15,26.90
2007,08,15,14,16,27.00
2007,08,15,14,17,27.10
2007,08,15,14,18,27.10
2007,08,15,14,19,27.10
2007,08,15,14,20,27.20
2007,08,15,14,21,27.20
2007,08,15,14,22,27.30
2007,08,15,14,23,27.30
2007,08,15,14,24,27.20
2007,08,15,14,25,27.30
2007,08,15,14,26,27.30
2007,08,15,14,27,27.30
2007,08,15,14,28,27.30
2007,08,15,14,29,27.30
2007,08,15,14,30,27.20
2007,08,15,14,31,27.20
2007,08,15,14,32,27.20
2007,08,15,14,33,27.20
2007,08,15,14,34,27.20
2007,08,15,14,35,27.30
2007,08,15,14,36,27.30
2007,08,15,14,37,27.20
2007,08,15,14,38,27.30
2007,08,15,14,39,27.30
2007,08,15,14,40,27.30
2007,08,15,14,41,27.30
2007,08,15,14,42,27.30
2007,08,15,14,43,27.30
2007,08,15,14,44,27.30
2007,08,15,14,45,27.30
2007,08,15,14,46,27.40
2007,08,15,14,47,27.40
2007,08,15,14,48,27.40
2007,08,15,14,49,27.60
2007,08,15,14,50,27.70
2007,08,15,14,51,27.70
2007,08,15,14,52,27.80
2007,08,15,14,53,28.00
2007,08,15,14,54,28.00
2007,08,15,14,55,28.00
2007,08,15,14,56,28.00
2007,08,15,14,57,27.90
2007,08,15,14,58,27.80
2007,08,15,14,59,27.70
2007,08,15,15,00,27.70
2007,08,15,15,01,27.70
2007,08,15,15,02,27.80
2007,08,15,15,03,27.70
2007,08,15,15,04,27.70
2007,08,15,15,05,27.80
2007,08,15,15,06,27.80
2007,08,15,15,07,27.70
2007,08,15,15,08,27.60
2007,08,15,15,09,27.60
2007,08,15,15,10,27.60
2007,08,15,15,11,27.60
2007,08,15,15,12,27.60
2007,08,15,15,13,27.70
2007,08,15,15,14,27.70
2007,08,15,15,15,27.70
2007,08,15,15,16,27.70
2007,08,15,15,17,27.80
2007,08,15,15,18,27.90
2007,08,15,15,19,27.90
2007,08,15,15,20,28.00
2007,08,15,15,21,28.00
2007,08,15,15,22,28.10
2007,08,15,15,23,28.00
2007,08,15,15,24,28.00
2007,08,15,15,25,27.90
2007,08,15,15,26,27.90
2007,08,15,15,27,27.90
2007,08,15,15,28,27.90
2007,08,15,15,29,27.90
2007,08,15,15,30,27.90
2007,08,15,15,31,28.00
2007,08,15,15,32,28.00
2007,08,15,15,33,27.90
2007,08,15,15,34,27.90
2007,08,15,15,35,27.90
2007,08,15,15,36,27.90
2007,08,15,15,37,27.90
2007,08,15,15,38,28.00
2007,08,15,15,39,28.00
2007,08,15,15,40,27.90
2007,08,15,15,41,27.90
2007,08,15,15,42,27.90
2007,08,15,15,43,27.90
2007,08,15,15,44,28.00
2007,08,15,15,45,28.00
2007,08,15,15,46,27.90
2007,08,15,15,47,27.90
2007,08,15,15,48,27.90
2007,08,15,15,49,27.90
2007,08,15,15,50,27.90
2007,08,15,15,51,27.90
2007,08,15,15,52,27.80
2007,08,15,15,53,27.80
2007,08,15,15,54,27.80
2007,08,15,15,55,27.80
2007,08,15,15,56,27.80
2007,08,15,15,57,27.70
2007,08,15,15,58,27.70
2007,08,15,15,59,27.70
2007,08,15,16,00,27.70
2007,08,15,16,01,27.70
2007,08,15,16,02,27.70
2007,08,15,16,03,27.70
2007,08,15,16,04,27.70
2007,08,15,16,05,27.70
2007,08,15,16,06,27.80
2007,08,15,16,07,27.80
2007,08,15,16,08,27.90
2007,08,15,16,09,27.90
2007,08,15,16,10,28.00
2007,08,15,16,11,28.00
2007,08,15,16,12,28.10
2007,08,15,16,13,28.20
2007,08,15,16,14,28.30
2007,08,15,16,15,28.40
2007,08,15,16,16,28.50
2007,08,15,16,17,28.60
2007,08,15,16,18,28.70
2007,08,15,16,19,28.80
2007,08,15,16,20,28.90
2007,08,15,16,21,28.90
2007,08,15,16,22,29.10
2007,08,15,16,23,29.10
2007,08,15,16,24,29.10
2007,08,15,16,25,28.90
2007,08,15,16,26,28.90
2007,08,15,16,27,28.90
2007,08,15,16,28,28.80
2007,08,15,16,29,28.70
2007,08,15,16,30,28.70
2007,08,15,16,31,28.80
2007,08,15,16,32,28.80
2007,08,15,16,33,28.90
2007,08,15,16,34,28.90
2007,08,15,16,35,29.00
2007,08,15,16,36,29.10
2007,08,15,16,37,29.10
2007,08,15,16,38,29.20
2007,08,15,16,39,29.20
2007,08,15,16,40,29.20
2007,08,15,16,41,29.20
2007,08,15,16,42,29.20
2007,08,15,16,43,29.10
2007,08,15,16,44,29.10
2007,08,15,16,45,29.10
2007,08,15,16,46,29.00
2007,08,15,16,47,29.10
2007,08,15,16,48,29.10
2007,08,15,16,49,29.10
2007,08,15,16,50,29.10
2007,08,15,16,51,29.10
2007,08,15,16,52,29.00
2007,08,15,16,53,29.10
2007,08,15,16,54,29.10
2007,08,15,16,55,29.10
2007,08,15,16,56,29.20
2007,08,15,16,57,29.20
2007,08,15,16,58,29.30
2007,08,15,16,59,29.40
2007,08,15,17,00,29.50
2007,08,15,17,01,29.60
2007,08,15,17,02,29.60
2007,08,15,17,03,29.60
2007,08,15,17,04,29.50
2007,08,15,17,05,29.50
2007,08,15,17,06,29.50
2007,08,15,17,07,29.50
2007,08,15,17,08,29.50
2007,08,15,17,09,29.50
2007,08,15,17,10,29.40
2007,08,15,17,11,29.40
2007,08,15,17,12,29.40
2007,08,15,17,13,29.40
2007,08,15,17,14,29.50
2007,08,15,17,15,29.60
2007,08,15,17,16,29.60
2007,08,15,17,17,29.70
2007,08,15,17,18,29.70
2007,08,15,17,19,29.80